QPF
0.00 0.00 0.00 0.00 0.00 0.00 0.00 0.00 0.00 0.00 0.00 0.00 0.00 0.00 0.00 0.00 0.00 0.00 0.00 0.00 0.00 0.00 0.00 0.00 0.00 0.00 0.00 0.00 0.00 0.00 0.01 0.01 0.01 0.01 0.01 0.01 0.01 0.01 0.02 0.02 0.02 0.03 0.03 0.04
0.00 0.00 0.00 0.00 0.00 0.00 0.00 0.00 0.00 0.00 0.00 0.00 0.00 0.00 0.00 0.00 0.00 0.00 0.00 0.00 0.00 0.00 0.00 0.00 0.00 0.00 0.00 0.00 0.01 0.01 0.01 0.01 0.01 0.01 0.01 0.01 0.02 0.02 0.03 0.03 0.04 0.05 0.05 0.05
0.00 0.00 0.00 0.00 0.00 0.00 0.00 0.00 0.00 0.00 0.00 0.00 0.00 0.00 0.00 0.00 0.00 0.00 0.00 0.00 0.00 0.00 0.00 0.00 0.00 0.00 0.00 0.01 0.01 0.01 0.01 0.01 0.01 0.01 0.02 0.02 0.02 0.02 0.04 0.05 0.06 0.06 0.06 0.06
0.00 0.00 0.00 0.00 0.00 0.00 0.00 0.00 0.00 0.00 0.00 0.00 0.00 0.00 0.00 0.00 0.00 0.00 0.00 0.00 0.00 0.00 0.00 0.00 0.00 0.00 0.00 0.00 0.01 0.01 0.01 0.02 0.01 0.02 0.02 0.02 0.03 0.04 0.06 0.07 0.07 0.08 0.07 0.08
0.00 0.00 0.00 0.00 0.00 0.00 0.00 0.00 0.00 0.00 0.00 0.00 0.00 0.00 0.00 0.00 0.00 0.00 0.00 0.00 0.00 0.00 0.00 0.00 0.00 0.00 0.01 0.01 0.01 0.01 0.02 0.02 0.02 0.02 0.02 0.03 0.04 0.06 0.07 0.08 0.08 0.09 0.10 0.11
0.00 0.00 0.00 0.00 0.00 0.00 0.00 0.00 0.00 0.00 0.00 0.00 0.00 0.00 0.00 0.00 0.00 0.00 0.00 0.00 0.00 0.00 0.00 0.01 0.01 0.01 0.01 0.01 0.01 0.02 0.02 0.02 0.02 0.03 0.03 0.04 0.05 0.06 0.07 0.08 0.08 0.09 0.09 0.11
0.00 0.00 0.00 0.00 0.00 0.00 0.00 0.00 0.00 0.00 0.00 0.00 0.00 0.00 0.00 0.00 0.00 0.00 0.00 0.00 0.00 0.00 0.00 0.01 0.01 0.01 0.01 0.01 0.02 0.02 0.02 0.02 0.02 0.03 0.04 0.05 0.06 0.07 0.08 0.08 0.08 0.08 0.09 0.11
0.00 0.00 0.00 0.00 0.00 0.00 0.00 0.00 0.00 0.00 0.00 0.00 0.00 0.00 0.00 0.00 0.00 0.00 0.00 0.00 0.00 0.00 0.00 0.01 0.01 0.02 0.02 0.02 0.02 0.02 0.02 0.02 0.02 0.03 0.04 0.04 0.07 0.08 0.09 0.09 0.09 0.09 0.10 0.10
0.00 0.00 0.00 0.00 0.00 0.00 0.00 0.00 0.00 0.00 0.00 0.00 0.00 0.00 0.00 0.00 0.00 0.00 0.00 0.00 0.00 0.00 0.00 0.01 0.01 0.02 0.02 0.02 0.02 0.02 0.02 0.02 0.02 0.03 0.05 0.07 0.09 0.10 0.10 0.11 0.11 0.10 0.10 0.11
0.00 0.00 0.00 0.00 0.00 0.00 0.00 0.00 0.00 0.00 0.00 0.00 0.00 0.00 0.00 0.00 0.00 0.00 0.00 0.00 0.00 0.00 0.00 0.01 0.01 0.01 0.02 0.02 0.02 0.02 0.01 0.01 0.02 0.03 0.05 0.08 0.11 0.11 0.11 0.11 0.10 0.09 0.10 0.12
0.00 0.00 0.00 0.00 0.00 0.00 0.00 0.00 0.00 0.00 0.00 0.00 0.00 0.00 0.00 0.00 0.00 0.00 0.00 0.00 0.00 0.00 0.01 0.01 0.01 0.01 0.01 0.01 0.01 0.01 0.01 0.01 0.02 0.04 0.06 0.09 0.11 0.12 0.08 0.07 0.04 0.03 0.05 0.09
0.00 0.00 0.00 0.00 0.00 0.00 0.00 0.00 0.00 0.00 0.00 0.00 0.00 0.00 0.00 0.00 0.00 0.00 0.00 0.00 0.00 0.00 0.00 0.00 0.01 0.01 0.01 0.01 0.01 0.02 0.02 0.02 0.02 0.03 0.06 0.09 0.12 0.13 0.09 0.03 0.01 0.01 0.01 0.02
0.00 0.00 0.00 0.00 0.00 0.00 0.00 0.00 0.00 0.00 0.00 0.00 0.00 0.00 0.00 0.00 0.00 0.00 0.00 0.00 0.00 0.00 0.00 0.00 0.01 0.01 0.01 0.01 0.01 0.02 0.02 0.02 0.03 0.05 0.08 0.10 0.13 0.16 0.17 0.12 0.05 0.02 0.01 0.00
0.00 0.00 0.00 0.00 0.00 0.00 0.00 0.00 0.00 0.00 0.00 0.00 0.00 0.00 0.00 0.00 0.00 0.00 0.00 0.00 0.00 0.00 0.00 0.00 0.01 0.01 0.01 0.00 0.01 0.01 0.02 0.02 0.03 0.07 0.10 0.11 0.14 0.16 0.17 0.18 0.16 0.11 0.05 0.01
0.00 0.00 0.00 0.00 0.00 0.00 0.00 0.00 0.00 0.00 0.00 0.00 0.00 0.00 0.00 0.00 0.00 0.00 0.00 0.00 0.00 0.00 0.00 0.00 0.00 0.00 0.00 0.00 0.00 0.01 0.02 0.02 0.03 0.05 0.08 0.11 0.14 0.16 0.17 0.17 0.17 0.16 0.12 0.04
0.00 0.00 0.00 0.00 0.00 0.00 0.00 0.00 0.00 0.00 0.00 0.00 0.00 0.00 0.00 0.00 0.00 0.00 0.00 0.00 0.00 0.00 0.00 0.00 0.00 0.00 0.00 0.00 0.00 0.01 0.02 0.01 0.02 0.03 0.07 0.10 0.13 0.15 0.16 0.15 0.14 0.14 0.13 0.10
0.00 0.00 0.00 0.00 0.00 0.00 0.00 0.00 0.00 0.00 0.00 0.00 0.00 0.00 0.00 0.00 0.00 0.00 0.00 0.00 0.00 0.00 0.00 0.00 0.00 0.00 0.00 0.00 0.01 0.02 0.02 0.01 0.02 0.04 0.08 0.10 0.12 0.13 0.12 0.13 0.13 0.11 0.10 0.07
0.00 0.00 0.00 0.00 0.00 0.00 0.00 0.00 0.00 0.00 0.00 0.00 0.00 0.00 0.00 0.00 0.00 0.00 0.00 0.00 0.00 0.00 0.00 0.00 0.00 0.00 0.00 0.00 0.00 0.01 0.01 0.02 0.02 0.04 0.07 0.09 0.08 0.09 0.09 0.11 0.11 0.10 0.09 0.05
0.00 0.00 0.00 0.00 0.00 0.00 0.00 0.00 0.00 0.00 0.00 0.00 0.00 0.00 0.00 0.00 0.00 0.00 0.00 0.00 0.00 0.00 0.00 0.00 0.00 0.00 0.00 0.00 0.00 0.01 0.01 0.01 0.02 0.04 0.07 0.08 0.09 0.11 0.09 0.09 0.08 0.08 0.07 0.05
0.00 0.00 0.00 0.00 0.00 0.00 0.00 0.00 0.00 0.00 0.00 0.00 0.00 0.00 0.00 0.00 0.00 0.00 0.00 0.00 0.00 0.00 0.00 0.00 0.00 0.00 0.00 0.00 0.00 0.00 0.01 0.01 0.02 0.03 0.05 0.08 0.11 0.12 0.11 0.08 0.07 0.08 0.06 0.05
0.00 0.00 0.00 0.00 0.00 0.00 0.00 0.00 0.00 0.00 0.00 0.00 0.00 0.00 0.00 0.00 0.00 0.00 0.00 0.00 0.00 0.00 0.00 0.00 0.00 0.00 0.00 0.00 0.00 0.00 0.00 0.01 0.01 0.02 0.03 0.06 0.10 0.13 0.12 0.09 0.08 0.09 0.08 0.06
0.00 0.00 0.00 0.00 0.00 0.00 0.00 0.00 0.00 0.00 0.00 0.00 0.00 0.00 0.00 0.00 0.00 0.00 0.00 0.00 0.00 0.00 0.00 0.00 0.00 0.00 0.00 0.00 0.00 0.00 0.00 0.00 0.01 0.01 0.02 0.04 0.07 0.10 0.10 0.09 0.09 0.10 0.11 0.10
0.00 0.00 0.00 0.00 0.00 0.00 0.00 0.00 0.00 0.01 0.01 0.01 0.01 0.01 0.00 0.00 0.00 0.00 0.00 0.00 0.00 0.00 0.00 0.00 0.00 0.00 0.00 0.00 0.00 0.00 0.00 0.00 0.00 0.00 0.01 0.03 0.05 0.06 0.07 0.08 0.08 0.08 0.09 0.09
0.00 0.00 0.00 0.00 0.00 0.00 0.00 0.00 0.00 0.00 0.00 0.01 0.01 0.01 0.01 0.01 0.00 0.00 0.00 0.00 0.00 0.00 0.00 0.00 0.00 0.00 0.00 0.00 0.00 0.00 0.00 0.00 0.00 0.00 0.01 0.02 0.03 0.03 0.05 0.07 0.07 0.07 0.07 0.06
0.00 0.00 0.00 0.00 0.00 0.00 0.00 0.00 0.01 0.01 0.01 0.01 0.01 0.01 0.01 0.01 0.00 0.00 0.00 0.00 0.00 0.00 0.00 0.00 0.00 0.00 0.00 0.00 0.00 0.00 0.00 0.00 0.00 0.00 0.01 0.01 0.02 0.02 0.04 0.06 0.05 0.05 0.05 0.06
0.00 0.00 0.00 0.00 0.00 0.00 0.00 0.00 0.01 0.01 0.01 0.01 0.01 0.01 0.01 0.01 0.01 0.01 0.01 0.01 0.00 0.00 0.00 0.00 0.00 0.00 0.00 0.00 0.00 0.00 0.00 0.00 0.00 0.00 0.00 0.00 0.01 0.02 0.03 0.05 0.06 0.06 0.05 0.06
0.00 0.00 0.00 0.00 0.00 0.00 0.00 0.01 0.01 0.01 0.02 0.03 0.03 0.02 0.02 0.03 0.02 0.02 0.02 0.01 0.00 0.00 0.00 0.00 0.00 0.00 0.00 0.00 0.00 0.00 0.00 0.00 0.00 0.00 0.00 0.00 0.01 0.01 0.02 0.03 0.05 0.05 0.06 0.07
MSLP
1010.45 1010.42 1010.35 1010.28 1010.22 1010.19 1010.19 1010.22 1010.24 1010.26 1010.26 1010.25 1010.24 1010.25 1010.29 1010.39 1010.54 1010.74 1010.97 1011.19 1011.37 1011.49 1011.54 1011.50 1011.38 1011.20 1010.98 1010.73 1010.49 1010.24 1010.00 1009.75 1009.50 1009.23 1008.93 1008.62 1008.29 1007.96 1007.63 1007.32 1007.03 1006.75 1006.49 1006.24
1010.73 1010.74 1010.67 1010.54 1010.38 1010.24 1010.12 1010.05 1010.02 1010.03 1010.08 1010.15 1010.26 1010.38 1010.53 1010.70 1010.87 1011.05 1011.20 1011.32 1011.39 1011.41 1011.36 1011.27 1011.12 1010.94 1010.74 1010.53 1010.31 1010.08 1009.83 1009.56 1009.25 1008.92 1008.55 1008.17 1007.77 1007.38 1007.01 1006.67 1006.35 1006.07 1005.80 1005.54
1010.83 1010.86 1010.78 1010.62 1010.40 1010.18 1010.00 1009.86 1009.81 1009.82 1009.91 1010.06 1010.26 1010.48 1010.71 1010.92 1011.10 1011.24 1011.32 1011.34 1011.31 1011.22 1011.09 1010.94 1010.77 1010.60 1010.42 1010.24 1010.06 1009.85 1009.61 1009.32 1008.99 1008.60 1008.17 1007.72 1007.25 1006.80 1006.38 1005.99 1005.64 1005.32 1005.03 1004.76
1010.74 1010.78 1010.69 1010.49 1010.24 1009.98 1009.75 1009.59 1009.52 1009.56 1009.69 1009.90 1010.17 1010.46 1010.74 1010.98 1011.16 1011.26 1011.28 1011.22 1011.09 1010.92 1010.72 1010.52 1010.33 1010.16 1010.01 1009.87 1009.72 1009.55 1009.33 1009.04 1008.68 1008.26 1007.78 1007.27 1006.75 1006.23 1005.75 1005.31 1004.91 1004.56 1004.24 1003.96
1010.52 1010.52 1010.40 1010.18 1009.90 1009.62 1009.38 1009.21 1009.15 1009.20 1009.37 1009.63 1009.95 1010.29 1010.60 1010.86 1011.03 1011.11 1011.07 1010.95 1010.76 1010.52 1010.28 1010.05 1009.85 1009.69 1009.56 1009.45 1009.34 1009.19 1008.99 1008.71 1008.35 1007.91 1007.39 1006.83 1006.26 1005.69 1005.15 1004.66 1004.22 1003.84 1003.50 1003.19
1010.17 1010.11 1009.95 1009.71 1009.42 1009.14 1008.90 1008.75 1008.70 1008.79 1008.98 1009.28 1009.63 1010.00 1010.33 1010.60 1010.76 1010.81 1010.75 1010.59 1010.36 1010.09 1009.81 1009.57 1009.37 1009.22 1009.11 1009.03 1008.94 1008.82 1008.63 1008.36 1007.99 1007.53 1007.00 1006.40 1005.79 1005.18 1004.60 1004.08 1003.61 1003.20 1002.84 1002.53
1009.71 1009.58 1009.38 1009.12 1008.84 1008.57 1008.36 1008.24 1008.23 1008.35 1008.57 1008.89 1009.26 1009.64 1009.98 1010.25 1010.41 1010.45 1010.38 1010.20 1009.95 1009.67 1009.39 1009.15 1008.95 1008.81 1008.72 1008.65 1008.58 1008.46 1008.28 1008.00 1007.63 1007.15 1006.59 1005.98 1005.34 1004.70 1004.10 1003.55 1003.07 1002.66 1002.31 1002.02
1009.13 1008.93 1008.70 1008.44 1008.19 1007.96 1007.81 1007.74 1007.78 1007.93 1008.19 1008.53 1008.91 1009.29 1009.63 1009.89 1010.04 1010.08 1010.01 1009.84 1009.60 1009.33 1009.06 1008.83 1008.65 1008.52 1008.43 1008.36 1008.28 1008.16 1007.96 1007.66 1007.26 1006.77 1006.18 1005.55 1004.89 1004.24 1003.64 1003.09 1002.62 1002.23 1001.92 1001.67
1008.41 1008.17 1007.92 1007.69 1007.49 1007.33 1007.25 1007.26 1007.37 1007.57 1007.86 1008.22 1008.60 1008.98 1009.31 1009.56 1009.72 1009.76 1009.70 1009.54 1009.33 1009.09 1008.85 1008.65 1008.48 1008.35 1008.26 1008.18 1008.07 1007.91 1007.67 1007.34 1006.90 1006.37 1005.76 1005.10 1004.43 1003.78 1003.18 1002.66 1002.23 1001.89 1001.64 1001.46
1007.55 1007.28 1007.05 1006.87 1006.74 1006.67 1006.69 1006.79 1006.98 1007.25 1007.58 1007.96 1008.35 1008.72 1009.04 1009.29 1009.44 1009.49 1009.45 1009.32 1009.15 1008.95 1008.75 1008.57 1008.42 1008.29 1008.19 1008.08 1007.93 1007.72 1007.42 1007.03 1006.53 1005.95 1005.30 1004.62 1003.94 1003.30 1002.73 1002.25 1001.87 1001.60 1001.43 1001.34
1006.54 1006.28 1006.08 1005.96 1005.92 1005.96 1006.09 1006.29 1006.57 1006.91 1007.29 1007.70 1008.10 1008.47 1008.79 1009.03 1009.19 1009.25 1009.23 1009.15 1009.02 1008.86 1008.70 1008.55 1008.42 1008.30 1008.17 1008.02 1007.82 1007.54 1007.17 1006.71 1006.15 1005.51 1004.82 1004.11 1003.42 1002.80 1002.26 1001.83 1001.51 1001.32 1001.24 1001.24
1005.43 1005.19 1005.03 1004.98 1005.03 1005.18 1005.41 1005.72 1006.08 1006.50 1006.93 1007.37 1007.79 1008.18 1008.50 1008.74 1008.91 1009.00 1009.01 1008.96 1008.88 1008.77 1008.65 1008.53 1008.41 1008.29 1008.14 1007.95 1007.69 1007.35 1006.91 1006.37 1005.75 1005.05 1004.32 1003.59 1002.90 1002.29 1001.79 1001.41 1001.16 1001.04 1001.04 1001.12
1004.31 1004.09 1003.98 1003.99 1004.11 1004.34 1004.66 1005.05 1005.49 1005.97 1006.46 1006.94 1007.38 1007.78 1008.12 1008.38 1008.57 1008.69 1008.73 1008.73 1008.69 1008.62 1008.54 1008.45 1008.35 1008.22 1008.05 1007.82 1007.51 1007.11 1006.61 1006.01 1005.33 1004.60 1003.84 1003.10 1002.41 1001.82 1001.35 1001.01 1000.82 1000.76 1000.81 1000.94
1003.31 1003.10 1003.01 1003.05 1003.22 1003.50 1003.87 1004.31 1004.81 1005.33 1005.87 1006.38 1006.87 1007.29 1007.66 1007.95 1008.16 1008.31 1008.40 1008.44 1008.44 1008.41 1008.36 1008.29 1008.20 1008.06 1007.88 1007.62 1007.27 1006.82 1006.28 1005.64 1004.92 1004.17 1003.40 1002.66 1001.99 1001.42 1000.98 1000.68 1000.52 1000.49 1000.57 1000.72
1002.54 1002.33 1002.25 1002.29 1002.46 1002.74 1003.12 1003.58 1004.10 1004.66 1005.22 1005.77 1006.29 1006.75 1007.15 1007.47 1007.73 1007.92 1008.04 1008.12 1008.15 1008.15 1008.12 1008.06 1007.97 1007.83 1007.63 1007.35 1006.97 1006.50 1005.93 1005.27 1004.55 1003.79 1003.04 1002.32 1001.67 1001.14 1000.72 1000.45 1000.30 1000.28 1000.35 1000.49
1002.15 1001.92 1001.80 1001.80 1001.93 1002.17 1002.53 1002.97 1003.48 1004.04 1004.61 1005.19 1005.73 1006.23 1006.67 1007.04 1007.33 1007.56 1007.71 1007.82 1007.87 1007.89 1007.87 1007.82 1007.72 1007.56 1007.35 1007.05 1006.66 1006.17 1005.60 1004.95 1004.24 1003.50 1002.78 1002.09 1001.48 1000.98 1000.59 1000.33 1000.18 1000.14 1000.18 1000.27
1002.19 1001.92 1001.74 1001.67 1001.72 1001.89 1002.18 1002.56 1003.04 1003.57 1004.14 1004.73 1005.30 1005.83 1006.30 1006.71 1007.04 1007.29 1007.48 1007.60 1007.67 1007.69 1007.67 1007.60 1007.48 1007.31 1007.07 1006.76 1006.36 1005.87 1005.31 1004.68 1004.00 1003.30 1002.62 1001.98 1001.41 1000.94 1000.58 1000.32 1000.16 1000.09 1000.08 1000.09
1002.64 1002.33 1002.08 1001.92 1001.87 1001.93 1002.12 1002.43 1002.84 1003.33 1003.88 1004.46 1005.03 1005.58 1006.09 1006.52 1006.88 1007.17 1007.37 1007.50 1007.57 1007.58 1007.54 1007.45 1007.31 1007.12 1006.86 1006.52 1006.11 1005.63 1005.08 1004.47 1003.83 1003.18 1002.55 1001.96 1001.44 1001.00 1000.65 1000.40 1000.22 1000.11 1000.04 999.98
1003.44 1003.07 1002.74 1002.48 1002.32 1002.27 1002.35 1002.56 1002.89 1003.31 1003.82 1004.37 1004.94 1005.50 1006.01 1006.47 1006.85 1007.14 1007.36 1007.49 1007.56 1007.56 1007.50 1007.39 1007.22 1007.00 1006.71 1006.36 1005.95 1005.46 1004.93 1004.34 1003.73 1003.12 1002.53 1001.99 1001.50 1001.09 1000.76 1000.51 1000.32 1000.17 1000.05 999.93
1004.41 1003.99 1003.58 1003.22 1002.95 1002.79 1002.76 1002.86 1003.09 1003.44 1003.89 1004.40 1004.94 1005.48 1005.99 1006.44 1006.83 1007.13 1007.36 1007.49 1007.56 1007.55 1007.48 1007.35 1007.17 1006.93 1006.63 1006.27 1005.85 1005.37 1004.83 1004.27 1003.68 1003.10 1002.54 1002.03 1001.57 1001.18 1000.87 1000.61 1000.41 1000.24 1000.08 999.92
1005.37 1004.90 1004.42 1003.98 1003.61 1003.34 1003.20 1003.19 1003.32 1003.58 1003.95 1004.39 1004.88 1005.39 1005.87 1006.32 1006.70 1007.01 1007.24 1007.39 1007.46 1007.47 1007.41 1007.29 1007.11 1006.88 1006.58 1006.22 1005.80 1005.32 1004.80 1004.24 1003.67 1003.10 1002.56 1002.06 1001.62 1001.25 1000.94 1000.69 1000.48 1000.29 1000.12 999.94
1006.15 1005.64 1005.11 1004.59 1004.13 1003.77 1003.52 1003.41 1003.44 1003.60 1003.87 1004.23 1004.65 1005.10 1005.54 1005.96 1006.33 1006.64 1006.89 1007.06 1007.17 1007.22 1007.20 1007.12 1006.98 1006.78 1006.52 1006.18 1005.78 1005.32 1004.81 1004.26 1003.70 1003.14 1002.60 1002.11 1001.67 1001.30 1000.99 1000.73 1000.52 1000.34 1000.16 999.98
1006.64 1006.10 1005.52 1004.95 1004.42 1003.97 1003.63 1003.42 1003.34 1003.39 1003.56 1003.82 1004.15 1004.52 1004.91 1005.29 1005.65 1005.96 1006.24 1006.46 1006.63 1006.74 1006.80 1006.81 1006.75 1006.62 1006.42 1006.14 1005.78 1005.35 1004.87 1004.34 1003.78 1003.23 1002.69 1002.19 1001.75 1001.38 1001.06 1000.81 1000.60 1000.42 1000.25 1000.08
1006.82 1006.24 1005.63 1005.02 1004.43 1003.92 1003.50 1003.20 1003.01 1002.95 1003.00 1003.15 1003.38 1003.67 1003.99 1004.32 1004.66 1004.99 1005.30 1005.59 1005.84 1006.06 1006.23 1006.35 1006.40 1006.38 1006.28 1006.09 1005.81 1005.44 1005.00 1004.50 1003.97 1003.42 1002.89 1002.39 1001.94 1001.55 1001.23 1000.97 1000.75 1000.58 1000.42 1000.27
1006.71 1006.12 1005.49 1004.85 1004.23 1003.67 1003.18 1002.79 1002.51 1002.34 1002.28 1002.32 1002.44 1002.63 1002.88 1003.18 1003.50 1003.84 1004.20 1004.55 1004.91 1005.24 1005.55 1005.80 1006.00 1006.12 1006.14 1006.07 1005.88 1005.60 1005.23 1004.78 1004.28 1003.76 1003.23 1002.74 1002.28 1001.89 1001.56 1001.29 1001.07 1000.90 1000.75 1000.62
1006.43 1005.84 1005.20 1004.55 1003.92 1003.32 1002.79 1002.34 1001.97 1001.71 1001.55 1001.48 1001.50 1001.61 1001.79 1002.04 1002.35 1002.70 1003.10 1003.54 1003.99 1004.44 1004.88 1005.29 1005.63 1005.89 1006.06 1006.12 1006.05 1005.87 1005.58 1005.20 1004.76 1004.27 1003.77 1003.29 1002.84 1002.44 1002.10 1001.83 1001.61 1001.43 1001.28 1001.15
1006.09 1005.51 1004.89 1004.25 1003.62 1003.02 1002.47 1001.98 1001.56 1001.23 1000.99 1000.84 1000.78 1000.82 1000.94 1001.15 1001.44 1001.81 1002.25 1002.74 1003.28 1003.84 1004.39 1004.93 1005.40 1005.80 1006.10 1006.28 1006.33 1006.26 1006.07 1005.77 1005.39 1004.96 1004.50 1004.04 1003.61 1003.22 1002.88 1002.60 1002.37 1002.18 1002.02 1001.88
Thickness
5775 5783 5781 5776 5774 5772 5761 5754 5742 5742 5742 5744 5740 5737 5732 5727 5718 5709 5700 5692 5683 5675 5667 5660 5652 5645 5638 5631 5626 5619 5613 5608 5604 5601 5597 5592 5588 5584 5580 5576 5573 5569 5565 5561
5766 5778 5777 5773 5775 5771 5763 5758 5751 5747 5743 5749 5744 5738 5728 5720 5711 5702 5694 5685 5678 5669 5661 5653 5646 5639 5631 5625 5619 5613 5607 5602 5598 5593 5589 5585 5581 5576 5572 5567 5562 5558 5553 5549
5751 5770 5770 5759 5771 5768 5762 5762 5753 5739 5741 5744 5734 5727 5722 5716 5707 5697 5688 5680 5672 5663 5655 5648 5641 5633 5626 5619 5613 5607 5601 5596 5592 5587 5583 5578 5573 5568 5563 5558 5554 5549 5544 5540
5749 5751 5732 5763 5786 5778 5763 5758 5757 5752 5747 5738 5731 5726 5722 5714 5700 5690 5683 5674 5665 5657 5651 5645 5637 5629 5621 5614 5607 5601 5596 5591 5586 5581 5577 5572 5566 5561 5556 5551 5546 5541 5537 5532
5742 5738 5748 5766 5774 5770 5755 5746 5758 5749 5740 5736 5733 5722 5709 5705 5697 5688 5679 5670 5661 5654 5648 5640 5632 5624 5616 5608 5602 5596 5591 5586 5581 5576 5571 5566 5561 5556 5551 5546 5541 5536 5532 5528
5742 5729 5726 5757 5776 5776 5756 5735 5747 5742 5733 5728 5722 5705 5703 5701 5695 5686 5676 5667 5659 5652 5644 5635 5627 5619 5610 5603 5597 5591 5586 5581 5576 5571 5566 5561 5557 5552 5548 5542 5537 5533 5529 5524
5739 5735 5750 5765 5771 5766 5733 5724 5740 5738 5731 5723 5713 5705 5704 5701 5692 5682 5673 5664 5657 5648 5639 5631 5623 5614 5605 5599 5593 5588 5582 5578 5573 5568 5563 5559 5555 5550 5545 5540 5535 5531 5526 5523
5749 5737 5738 5763 5763 5747 5740 5747 5743 5737 5731 5723 5715 5710 5704 5696 5686 5677 5668 5660 5652 5643 5635 5628 5620 5611 5602 5595 5590 5584 5579 5574 5570 5565 5561 5558 5552 5548 5543 5538 5534 5530 5525 5521
5755 5749 5760 5767 5763 5761 5757 5746 5740 5735 5730 5722 5712 5705 5699 5690 5681 5672 5664 5656 5648 5640 5632 5625 5617 5608 5599 5593 5586 5581 5575 5571 5567 5563 5559 5555 5551 5546 5542 5538 5533 5529 5524 5520
5756 5761 5766 5768 5768 5765 5758 5748 5742 5736 5728 5719 5709 5702 5694 5685 5676 5668 5660 5652 5645 5637 5629 5622 5615 5606 5597 5591 5584 5578 5572 5568 5565 5562 5559 5555 5550 5546 5541 5536 5532 5527 5523 5519
5753 5761 5764 5765 5765 5762 5756 5750 5742 5734 5726 5717 5707 5698 5690 5681 5672 5664 5656 5649 5642 5633 5626 5619 5612 5604 5596 5589 5581 5575 5570 5567 5564 5562 5558 5554 5550 5545 5540 5536 5529 5522 5519 5516
5752 5762 5756 5755 5762 5761 5751 5744 5738 5729 5721 5715 5706 5696 5687 5677 5669 5661 5653 5646 5638 5631 5624 5617 5610 5602 5594 5587 5579 5573 5569 5566 5563 5560 5557 5553 5549 5546 5541 5534 5527 5519 5513 5507
5771 5773 5768 5765 5763 5759 5750 5743 5738 5728 5718 5709 5702 5693 5683 5674 5666 5659 5651 5643 5635 5628 5621 5615 5608 5600 5592 5584 5577 5571 5567 5565 5562 5559 5556 5553 5549 5545 5541 5535 5527 5520 5515 5509
5775 5769 5759 5757 5754 5753 5749 5743 5737 5728 5718 5709 5699 5690 5680 5671 5663 5654 5647 5640 5633 5626 5619 5613 5605 5597 5590 5582 5576 5571 5568 5565 5562 5559 5556 5553 5550 5546 5542 5537 5532 5529 5520 5511
5770 5767 5760 5757 5754 5750 5746 5739 5729 5720 5712 5704 5696 5686 5676 5667 5657 5650 5644 5638 5630 5623 5616 5609 5602 5595 5587 5580 5575 5571 5568 5566 5563 5560 5558 5556 5553 5550 5544 5539 5534 5531 5527 5518
5762 5762 5758 5751 5746 5742 5738 5732 5723 5715 5708 5700 5692 5682 5673 5663 5654 5647 5641 5634 5625 5619 5612 5606 5599 5592 5585 5579 5575 5572 5569 5566 5563 5562 5560 5558 5556 5552 5547 5541 5536 5532 5529 5524
5747 5744 5743 5739 5738 5736 5732 5727 5720 5713 5706 5697 5688 5679 5668 5658 5649 5642 5635 5629 5622 5616 5610 5603 5596 5589 5583 5579 5574 5571 5570 5568 5566 5565 5562 5559 5557 5554 5549 5543 5538 5534 5530 5525
5742 5740 5738 5735 5732 5729 5726 5723 5718 5710 5701 5694 5684 5672 5660 5651 5642 5636 5630 5624 5618 5613 5609 5601 5592 5584 5582 5579 5573 5570 5569 5569 5567 5567 5565 5561 5557 5555 5551 5546 5542 5538 5533 5530
5727 5726 5725 5725 5723 5721 5717 5714 5710 5704 5696 5686 5674 5662 5653 5644 5637 5631 5626 5619 5614 5610 5603 5597 5586 5584 5582 5578 5570 5570 5570 5569 5568 5568 5566 5562 5560 5558 5553 5549 5545 5541 5538 5535
5708 5708 5708 5708 5709 5707 5704 5702 5697 5691 5683 5674 5663 5653 5644 5637 5632 5626 5621 5615 5613 5606 5598 5591 5584 5583 5579 5574 5566 5569 5570 5569 5568 5568 5567 5565 5562 5558 5555 5551 5547 5544 5542 5539
5686 5687 5687 5688 5687 5688 5686 5684 5680 5674 5668 5661 5651 5642 5636 5631 5626 5620 5615 5611 5608 5599 5592 5587 5583 5578 5573 5566 5564 5569 5569 5567 5567 5568 5568 5566 5563 5560 5557 5553 5551 5548 5546 5543
5662 5664 5664 5666 5666 5666 5666 5666 5663 5660 5655 5649 5642 5635 5628 5623 5619 5615 5612 5608 5603 5589 5587 5586 5581 5570 5565 5561 5567 5569 5566 5565 5565 5566 5566 5565 5563 5561 5559 5556 5554 5551 5549 5546
5641 5642 5643 5645 5646 5647 5649 5649 5648 5646 5643 5639 5635 5628 5623 5618 5614 5610 5607 5606 5599 5586 5582 5581 5569 5564 5559 5563 5566 5566 5563 5561 5561 5562 5563 5563 5563 5561 5561 5559 5557 5555 5552 5550
5622 5623 5624 5627 5629 5630 5631 5634 5635 5635 5633 5631 5628 5624 5618 5613 5609 5607 5605 5594 5588 5581 5580 5572 5564 5561 5557 5563 5563 5561 5559 5556 5556 5557 5558 5560 5561 5560 5560 5559 5559 5557 5555 5553
5605 5607 5608 5610 5612 5616 5620 5623 5624 5624 5623 5622 5621 5618 5614 5609 5605 5603 5601 5594 5582 5576 5576 5569 5561 5558 5560 5562 5559 5555 5553 5549 5548 5550 5554 5555 5556 5557 5557 5556 5557 5556 5555 5554
5592 5593 5597 5598 5600 5602 5606 5609 5612 5614 5614 5614 5612 5611 5608 5605 5600 5595 5590 5586 5581 5571 5569 5567 5563 5558 5558 5556 5553 5548 5545 5543 5544 5546 5548 5550 5551 5551 5553 5553 5554 5554 5553 5552
5579 5582 5584 5588 5593 5595 5598 5599 5600 5602 5603 5602 5601 5602 5601 5598 5593 5587 5582 5578 5575 5569 5565 5562 5559 5556 5552 5548 5544 5540 5537 5534 5534 5536 5539 5542 5544 5546 5548 5549 5550 5551 5550 5549